Weather History for Springfield, OH

Change the Weather History Date:

Monday, December 31, 2012

  Actual Average (KDAY) Record (KDAY)
Temperature  
Mean Temperature 26 °F 28 °F  
Max Temperature 32 °F 35 °F 67 °F (1951)
Min Temperature 20 °F 21 °F -6 °F (1976)
Degree Days  
Heating Degree Days 39 37  
Month to date heating degree days 1048  
Since 1 July heating degree days 2159  
Cooling Degree Days 0 0  
Month to date cooling degree days 0  
Year to date cooling degree days 891  
Moisture  
Dew Point 25 °F    
Average Humidity 85    
Maximum Humidity 93    
Minimum Humidity 64    
Precipitation  
Precipitation 0.01 in 0.10 in 1.24 in (1947)
Month to date precipitation 3.12  
Year to date precipitation 41.05  
Snow  
Snow 0.00 in 0.20 in 6.00 in (1897)
Month to date snowfall 4.5  
Since 1 July snowfall 5.5  
Snow Depth -    
Sea Level Pressure  
Sea Level Pressure 30.13 in    
Wind  
Wind Speed 11 mph (SW)    
Max Wind Speed 17 mph    
Max Gust Speed 23 mph    
Visibility 3 miles    
Events Snow    
T = Trace of Precipitation, MM = Missing Value Source: NWS Daily Summary

Daily Weather History Graph

Daily Weather History Graph

Search for Another Location

Airport:

Trip Planner

Search our weather history database for the weather conditions in past years. The results will help you decide how hot, cold, wet, or windy it might be!

Date:

Astronomy

Dec. 31, 2012 Rise Set
Actual Time 7:56 AM EST 5:20 PM EST
Civil Twilight 7:26 AM EST 5:51 PM EST
Nautical Twilight 6:52 AM EST 6:25 PM EST
Astronomical Twilight 6:19 AM EST 6:57 PM EST
Moon 8:50 PM EST (12/31) 9:38 AM EST (12/31)
Length of Visible Light 10h 24m
Length of Day
9h 24m
Waning Gibbous, 90% of the Moon is Illuminated
Dec 31
Waning Gibbous
Jan 4
Last Quarter
Jan 11
New
Jan 18
First Quarter
Jan 26
Full

Hourly Weather History & Observations

Time (EST) Temp. Windchill Dew Point Humidity Pressure Visibility Wind Dir Wind Speed Gust Speed Precip Events Conditions
12:56 AM 20.1 °F 10.3 °F 16.2 °F 85% 30.33 in 6.0 mi South 8.1 mph - N/A   Clear
1:56 AM 20.1 °F 12.3 °F 16.2 °F 85% 30.31 in 6.0 mi SSW 5.8 mph - N/A   Clear
2:56 AM 22.1 °F 12.0 °F 17.1 °F 81% 30.30 in 6.0 mi SW 9.2 mph - N/A   Haze
3:56 AM 21.0 °F 12.4 °F 17.1 °F 85% 30.29 in 6.0 mi SSW 6.9 mph - N/A   Clear
4:56 AM 23.0 °F 13.1 °F 18.1 °F 82% 30.26 in 7.0 mi SSW 9.2 mph - N/A   Clear
5:56 AM 23.0 °F 11.7 °F 18.1 °F 82% 30.24 in 7.0 mi SW 11.5 mph - N/A   Clear
6:56 AM 25.2 °F 12.4 °F 19.0 °F 78% 30.24 in 7.0 mi SW 16.1 mph - N/A   Clear
7:56 AM 25.2 °F 12.4 °F 19.0 °F 78% 30.22 in 6.0 mi SW 16.1 mph - N/A   Haze
8:56 AM 27.1 °F 15.4 °F 19.0 °F 72% 30.21 in 6.0 mi SW 15.0 mph - N/A   Haze
9:56 AM 29.1 °F 17.5 °F 20.1 °F 69% 30.20 in 6.0 mi SW 16.1 mph - N/A   Haze
10:56 AM 30.0 °F 19.5 °F 21.0 °F 69% 30.22 in 6.0 mi SW 13.8 mph - N/A   Haze
11:56 AM 32.0 °F 22.1 °F 21.0 °F 64% 30.20 in 6.0 mi SW 13.8 mph - N/A   Haze
12:43 PM 30.2 °F 18.5 °F 24.8 °F 80% 30.12 in 2.0 mi SW 17.3 mph 23.0 mph 0.00 in Snow Light Snow
12:46 PM 30.2 °F 18.5 °F 24.8 °F 80% 30.12 in 1.2 mi SW 17.3 mph 23.0 mph 0.00 in Snow Light Snow
12:56 PM 29.1 °F 18.4 °F 26.1 °F 88% 30.17 in 0.8 mi SW 13.8 mph - 0.00 in Snow Light Snow
1:09 PM 28.4 °F 17.0 °F 26.6 °F 93% 30.12 in 0.8 mi SW 15.0 mph - 0.00 in Snow Light Snow
1:42 PM 28.4 °F 19.1 °F 26.6 °F 93% 30.07 in 1.2 mi WSW 10.4 mph - 0.00 in Snow Light Snow
1:48 PM 28.4 °F 18.5 °F 26.6 °F 93% 30.07 in 1.8 mi WSW 11.5 mph - 0.00 in Snow Light Snow
1:56 PM 30.0 °F 19.5 °F 25.2 °F 82% 30.12 in 2.0 mi SW 13.8 mph - 0.00 in Snow Light Snow
2:02 PM 30.2 °F 19.3 °F 24.8 °F 80% 30.07 in 1.8 mi SW 15.0 mph - 0.00 in Snow Light Snow
2:04 PM 30.2 °F 21.3 °F 24.8 °F 80% 30.08 in 1.2 mi WSW 10.4 mph - 0.00 in Snow Light Snow
2:08 PM 30.2 °F 20.2 °F 24.8 °F 80% 30.08 in 0.8 mi WSW 12.7 mph - 0.00 in Snow Light Snow
2:13 PM 30.2 °F 18.9 °F 24.8 °F 80% 30.08 in 1.0 mi WSW 16.1 mph - 0.00 in Snow Light Snow
2:28 PM 30.2 °F 20.8 °F 26.6 °F 86% 30.08 in 0.8 mi WSW 11.5 mph - 0.00 in Snow Light Snow
2:40 PM 30.2 °F 20.2 °F 26.6 °F 86% 30.08 in 1.0 mi WSW 12.7 mph - 0.00 in Snow Light Snow
2:56 PM 29.1 °F 18.4 °F 27.1 °F 92% 30.13 in 0.8 mi WSW 13.8 mph - 0.00 in Snow Light Snow
3:05 PM 28.4 °F 18.5 °F 26.6 °F 93% 30.09 in 1.0 mi WSW 11.5 mph - 0.00 in Snow Light Snow
3:13 PM 28.4 °F 18.0 °F 26.6 °F 93% 30.08 in 0.8 mi WSW 12.7 mph - 0.00 in Snow Light Snow
3:27 PM 28.4 °F 18.0 °F 26.6 °F 93% 30.10 in 1.0 mi SW 12.7 mph - 0.00 in Snow Light Snow
3:43 PM 30.2 °F 20.8 °F 26.6 °F 86% 30.10 in 1.5 mi SW 11.5 mph - 0.00 in Snow Light Snow
3:56 PM 30.0 °F 20.5 °F 27.1 °F 89% 30.14 in 1.0 mi SW 11.5 mph - 0.00 in Snow Light Snow
4:10 PM 30.2 °F 21.3 °F 26.6 °F 86% 30.10 in 1.5 mi SW 10.4 mph - 0.00 in Snow Light Snow
4:23 PM 30.2 °F 21.3 °F 26.6 °F 86% 30.10 in 2.5 mi SW 10.4 mph - 0.00 in Snow Light Snow
4:29 PM 30.2 °F 20.8 °F 26.6 °F 86% 30.10 in 3.0 mi SW 11.5 mph - 0.00 in Snow Light Snow
4:37 PM 30.2 °F 20.8 °F 26.6 °F 86% 30.09 in 3.0 mi SW 11.5 mph - 0.00 in Snow Light Snow
4:45 PM 30.2 °F 20.2 °F 26.6 °F 86% 30.09 in 3.0 mi SW 12.7 mph - 0.00 in Snow Light Snow
4:56 PM 30.0 °F 20.5 °F 27.1 °F 89% 30.12 in 3.0 mi SW 11.5 mph - 0.00 in   Mostly Cloudy
5:05 PM 30.2 °F 22.6 °F 26.6 °F 86% 30.08 in 3.0 mi SW 8.1 mph - N/A   Mostly Cloudy
5:24 PM 30.2 °F 21.9 °F 26.6 °F 86% 30.09 in 4.0 mi SW 9.2 mph - N/A   Mostly Cloudy
5:36 PM 30.2 °F 21.3 °F 26.6 °F 86% 30.08 in 3.0 mi SW 10.4 mph - 0.00 in   Scattered Clouds
5:56 PM 30.0 °F 20.5 °F 27.1 °F 89% 30.12 in 5.0 mi WSW 11.5 mph - 0.00 in   Mostly Cloudy
6:56 PM 30.0 °F 20.5 °F 27.1 °F 89% 30.12 in 5.0 mi SW 11.5 mph - 0.00 in   Mostly Cloudy
7:28 PM 30.2 °F 19.3 °F 26.6 °F 86% 30.08 in 5.0 mi SW 15.0 mph - 0.00 in   Mostly Cloudy
7:38 PM 30.2 °F 20.2 °F 28.4 °F 93% 30.07 in 3.0 mi SSW 12.7 mph - 0.00 in   Mostly Cloudy
7:56 PM 30.0 °F 19.1 °F 28.0 °F 92% 30.10 in 4.0 mi SW 15.0 mph - 0.00 in   Overcast
8:10 PM 30.2 °F 20.2 °F 28.4 °F 93% 30.06 in 4.0 mi SSW 12.7 mph - N/A   Overcast
8:56 PM 30.0 °F 20.5 °F 28.0 °F 92% 30.10 in 5.0 mi WSW 11.5 mph - N/A   Overcast
9:14 PM 30.2 °F 21.3 °F 28.4 °F 93% 30.05 in 5.0 mi WSW 10.4 mph - N/A   Overcast
9:56 PM 31.1 °F 21.9 °F 28.0 °F 88% 30.08 in 5.0 mi WSW 11.5 mph - N/A   Overcast
10:56 PM 31.1 °F 23.1 °F 28.0 °F 88% 30.09 in 3.0 mi WSW 9.2 mph - 0.01 in   Overcast
11:47 PM 30.2 °F 21.9 °F 28.4 °F 93% 30.06 in 1.8 mi WSW 9.2 mph - 0.00 in Snow Light Snow
11:56 PM 31.1 °F 24.5 °F 28.0 °F 88% 30.08 in 1.5 mi WSW 6.9 mph - 0.00 in Snow Light Snow